Погода в Бонао

Доминиканская Республика     18°56′14″N   70°23′17″W
темп.,
°C
ветер,
м/с
пор.,
м/с
влажн.,
%
обл.,
%
осадки,
мм/ч
давл.,
гПа
погр.,
м
18 мая, вт
вт1823:00+19юз217948 0.0 101819
02:00+17юз218136 0.0 101720
05:00+16юз226243 0.0 101731
08:00+22ююв1341100 0.0 1018281
11:00+28в3442100 0.0 10171685
14:00+31в453590 0.0 10142480
17:00+24ю2453100 0.1 1014211
20:00+22зюз116572 0.1 101629
19 мая, ср
ср1923:00+19ююз117640 0.0 101819
02:00+18ююз117819 0.0 101723
05:00+17юз217676 0.0 101621
08:00+22юв1249100 0.0 1017310
11:00+28в332999 0.0 10171643
14:00+31всв442767 0.0 10142889
17:00+22в027298 1.3 1014100
20:00+19с239898 31.6 1017218
20 мая, чт
чт2023:00+18св119999 15.3 1019126
02:00+18юв019893 16.8 101869
05:00+17ююз119692 0.0 101722
08:00+20юв128690 0.0 1018237
11:00+25в346034 0.1 10171273
14:00+25вюв2372100 2.3 10161180
17:00+19всв1297100 10.6 1016105
20:00+19ссв12100100 30.4 1018111
21 мая, пт
пт2123:00+18ююз2397100 13.3 101996
02:00+18ююз2296100 14.8 101750
05:00+17юз119594 0.1 101713
08:00+19юв129183 0.1 1018170
11:00+20ююв1291100 0.0 1019204
14:00+20в1187100 0.3 101882
17:00+19ююв119598 1.9 101836
20:00+18ю1197100 2.1 101818
22 мая, сб
сб2223:00+18ююз119774 0.0 102020
02:00+17ююз1198100 0.0 101833
05:00+17ююз1197100 0.0 101821
08:00+19юв128941 0.0 1019261
11:00+25в346010 0.0 10181161
14:00+26в335981 0.5 10161390
17:00+20вюв129696 3.8 1017103
20:00+19ю119892 6.8 101857